| time (UTC) | temp C | wind direction | speed KPH | gust KPH | rain 1hr cm | rain 24hr cm | rain mn cm | humidity % | barometer mb |
| 20260506153445 | 11 | 187 | 16.1 | 20.9 | 0.00 | 0.00 | 0.00 | 97 | 1019.6 |
| 20260506152942 | 11 | 188 | 6.4 | 8.0 | 0.00 | 0.00 | 0.00 | 97 | 1019.8 |
| 20260506152439 | 11 | 242 | 3.2 | 4.8 | 0.00 | 0.00 | 0.00 | 97 | 1019.9 |
| 20260506151938 | 11 | 268 | 6.4 | 9.7 | 0.00 | 0.00 | 0.00 | 97 | 1019.9 |
| 20260506151434 | 11 | 195 | 4.8 | 8.0 | 0.00 | 0.00 | 0.00 | 97 | 1019.7 |
| 20260506150932 | 11 | 265 | 0.0 | 0.0 | 0.00 | 0.00 | 0.00 | 97 | 1019.7 |
| 20260506150428 | 11 | 268 | 4.8 | 4.8 | 0.00 | 0.00 | 0.00 | 96 | 1019.5 |
| 20260506145925 | 11 | 193 | 4.8 | 8.0 | 0.00 | 0.00 | 0.00 | 96 | 1019.5 |
| 20260506145421 | 11 | 193 | 6.4 | 9.7 | 0.00 | 0.00 | 0.00 | 96 | 1019.1 |
| 20260506144919 | 11 | 194 | 9.7 | 11.3 | 0.00 | 0.00 | 0.00 | 96 | 1019.2 |
| 20260506144415 | 11 | 213 | 0.0 | 1.6 | 0.00 | 0.00 | 0.00 | 96 | 1019.3 |
| 20260506143914 | 11 | 177 | 8.0 | 9.7 | 0.00 | 0.00 | 0.00 | 96 | 1019.5 |
| 20260506143410 | 11 | 230 | 3.2 | 4.8 | 0.00 | 0.00 | 0.00 | 96 | 1019.6 |
| 20260506142909 | 11 | 219 | 4.8 | 4.8 | 0.00 | 0.00 | 0.00 | 95 | 1019.6 |
| 20260506142406 | 11 | 242 | 8.0 | 9.7 | 0.00 | 0.00 | 0.00 | 95 | 1019.6 |
| 20260506141904 | 11 | 232 | 1.6 | 3.2 | 0.00 | 0.00 | 0.00 | 95 | 1019.4 |
| 20260506141402 | 11 | 228 | 1.6 | 3.2 | 0.00 | 0.00 | 0.00 | 95 | 1019.7 |
| 20260506140900 | 11 | 222 | 1.6 | 3.2 | 0.00 | 0.00 | 0.00 | 95 | 1019.2 |
| 20260506140356 | 11 | 186 | 4.8 | 9.7 | 0.00 | 0.00 | 0.00 | 94 | 1019.0 |
| 20260506135854 | 11 | 193 | 8.0 | 9.7 | 0.00 | 0.00 | 0.00 | 94 | 1019.4 |
| 20260506135350 | 11 | 227 | 4.8 | 4.8 | 0.00 | 0.00 | 0.00 | 94 | 1019.2 |
| 20260506134847 | 11 | 192 | 3.2 | 3.2 | 0.00 | 0.00 | 0.00 | 94 | 1019.2 |
| 20260506134343 | 11 | 258 | 1.6 | 1.6 | 0.00 | 0.00 | 0.00 | 94 | 1019.4 |
| 20260506133840 | 11 | 240 | 3.2 | 3.2 | 0.00 | 0.00 | 0.00 | 93 | 1019.3 |
| 20260506133337 | 11 | 201 | 6.4 | 8.0 | 0.00 | 0.00 | 0.00 | 93 | 1019.1 |
| 20260506132833 | 11 | 209 | 3.2 | 4.8 | 0.00 | 0.00 | 0.00 | 93 | 1019.1 |
| 20260506132331 | 11 | 262 | 3.2 | 3.2 | 0.00 | 0.00 | 0.00 | 93 | 1019.1 |
| 20260506131829 | 11 | 230 | 6.4 | 8.0 | 0.00 | 0.00 | 0.00 | 93 | 1019.1 |
| 20260506131325 | 11 | 283 | 1.6 | 1.6 | 0.00 | 0.00 | 0.00 | 93 | 1019.0 |
| 20260506130822 | 11 | 265 | 8.0 | 9.7 | 0.00 | 0.00 | 0.00 | 93 | 1018.9 |
| 20260506130318 | 11 | 216 | 4.8 | 9.7 | 0.00 | 0.00 | 0.00 | 92 | 1019.1 |
| 20260506125816 | 11 | 208 | 4.8 | 8.0 | 0.00 | 0.00 | 0.00 | 92 | 1018.7 |
| 20260506125314 | 11 | 207 | 6.4 | 8.0 | 0.00 | 0.00 | 0.00 | 92 | 1018.5 |
| 20260506124813 | 11 | 216 | 9.7 | 11.3 | 0.00 | 0.00 | 0.00 | 92 | 1018.6 |
| 20260506124309 | 11 | 221 | 1.6 | 3.2 | 0.00 | 0.00 | 0.00 | 92 | 1018.8 |
| 20260506123807 | 11 | 210 | 9.7 | 11.3 | 0.00 | 0.00 | 0.00 | 91 | 1018.6 |
| 20260506123306 | 11 | 202 | 11.3 | 12.9 | 0.00 | 0.00 | 0.00 | 91 | 1018.8 |
| 20260506122802 | 11 | 200 | 8.0 | 9.7 | 0.00 | 0.00 | 0.00 | 91 | 1018.6 |
| 20260506122259 | 11 | 218 | 3.2 | 3.2 | 0.00 | 0.00 | 0.00 | 91 | 1018.5 |
| 20260506121757 | 11 | 218 | 3.2 | 4.8 | 0.00 | 0.00 | 0.00 | 91 | 1018.5 |
| 20260506121254 | 11 | 212 | 6.4 | 8.0 | 0.00 | 0.00 | 0.00 | 91 | 1018.4 |
| 20260506120751 | 11 | 190 | 6.4 | 8.0 | 0.00 | 0.00 | 0.00 | 91 | 1018.6 |
| 20260506120249 | 11 | 161 | 4.8 | 4.8 | 0.00 | 0.00 | 0.00 | 91 | 1018.4 |
| 20260506115746 | 11 | 240 | 0.0 | 0.0 | 0.00 | 0.00 | 0.00 | 91 | 1018.5 |
| 20260506115244 | 11 | 178 | 9.7 | 11.3 | 0.00 | 0.00 | 0.00 | 91 | 1018.4 |
| 20260506114742 | 11 | 201 | 4.8 | 4.8 | 0.00 | 0.00 | 0.00 | 91 | 1018.3 |
| 20260506114239 | 11 | 217 | 4.8 | 4.8 | 0.00 | 0.00 | 0.00 | 91 | 1018.3 |
| 20260506113738 | 11 | 207 | 9.7 | 11.3 | 0.00 | 0.00 | 0.00 | 91 | 1018.2 |
| 20260506113235 | 11 | 191 | 8.0 | 9.7 | 0.00 | 0.00 | 0.00 | 91 | 1018.2 |
| 20260506112731 | 11 | 198 | 9.7 | 11.3 | 0.00 | 0.00 | 0.00 | 91 | 1018.1 |
| 20260506112229 | 11 | 203 | 6.4 | 8.0 | 0.00 | 0.00 | 0.00 | 91 | 1018.2 |
| 20260506111726 | 11 | 197 | 3.2 | 4.8 | 0.00 | 0.00 | 0.00 | 91 | 1018.0 |
| 20260506111224 | 11 | 205 | 8.0 | 11.3 | 0.00 | 0.00 | 0.00 | 91 | 1018.1 |
| 20260506110721 | 11 | 194 | 8.0 | 12.9 | 0.00 | 0.00 | 0.00 | 91 | 1017.9 |
| 20260506110218 | 11 | 226 | 0.0 | 1.6 | 0.00 | 0.00 | 0.00 | 92 | 1018.0 |
| 20260506105714 | 11 | 227 | 6.4 | 8.0 | 0.00 | 0.00 | 0.00 | 92 | 1018.1 |
| 20260506105211 | 11 | 237 | 3.2 | 3.2 | 0.00 | 0.00 | 0.00 | 92 | 1017.7 |
| 20260506104710 | 11 | 254 | 6.4 | 8.0 | 0.00 | 0.00 | 0.00 | 92 | 1017.8 |
| 20260506104207 | 11 | 273 | 3.2 | 3.2 | 0.00 | 0.00 | 0.00 | 92 | 1018.0 |
| 20260506103704 | 11 | 261 | 0.0 | 0.0 | 0.00 | 0.00 | 0.00 | 92 | 1017.8 |
| 20260506103201 | 11 | 278 | 0.0 | 1.6 | 0.00 | 0.00 | 0.00 | 92 | 1017.9 |
| 20260506102659 | 11 | 253 | 1.6 | 1.6 | 0.00 | 0.00 | 0.00 | 92 | 1018.0 |
| 20260506102156 | 11 | 254 | 3.2 | 3.2 | 0.00 | 0.00 | 0.00 | 92 | 1017.9 |
| 20260506101653 | 11 | 209 | 3.2 | 4.8 | 0.00 | 0.00 | 0.00 | 92 | 1017.9 |
| 20260506101150 | 11 | 212 | 4.8 | 8.0 | 0.00 | 0.00 | 0.00 | 91 | 1017.8 |
| 20260506100648 | 11 | 247 | 8.0 | 11.3 | 0.00 | 0.00 | 0.00 | 91 | 1017.7 |
| 20260506100146 | 11 | 266 | 8.0 | 11.3 | 0.00 | 0.00 | 0.00 | 91 | 1017.7 |
| 20260506095644 | 11 | 221 | 4.8 | 8.0 | 0.00 | 0.00 | 0.00 | 91 | 1017.8 |
| 20260506095140 | 11 | 252 | 6.4 | 9.7 | 0.00 | 0.00 | 0.00 | 91 | 1017.5 |
| 20260506094638 | 11 | 251 | 4.8 | 4.8 | 0.00 | 0.00 | 0.00 | 91 | 1017.4 |
| 20260506094136 | 11 | 203 | 1.6 | 3.2 | 0.00 | 0.00 | 0.00 | 91 | 1017.6 |
| 20260506093634 | 11 | 257 | 1.6 | 3.2 | 0.00 | 0.00 | 0.00 | 91 | 1017.4 |
| 20260506093131 | 11 | 253 | 0.0 | 0.0 | 0.00 | 0.00 | 0.00 | 91 | 1017.5 |
| 20260506092628 | 11 | 233 | 1.6 | 3.2 | 0.00 | 0.00 | 0.00 | 91 | 1017.5 |
| 20260506092125 | 11 | 258 | 0.0 | 0.0 | 0.00 | 0.00 | 0.00 | 91 | 1017.6 |
| 20260506091623 | 11 | 254 | 4.8 | 4.8 | 0.00 | 0.00 | 0.00 | 91 | 1017.3 |
| 20260506091121 | 11 | 249 | 0.0 | 0.0 | 0.00 | 0.00 | 0.00 | 90 | 1017.3 |
| 20260506090619 | 11 | 245 | 1.6 | 3.2 | 0.00 | 0.00 | 0.00 | 90 | 1017.2 |
| 20260506090114 | 11 | 264 | 0.0 | 1.6 | 0.00 | 0.00 | 0.00 | 90 | 1017.3 |
| 20260506085612 | 11 | 248 | 3.2 | 3.2 | 0.00 | 0.00 | 0.00 | 90 | 1017.2 |
| 20260506085108 | 12 | 274 | 1.6 | 1.6 | 0.00 | 0.00 | 0.00 | 89 | 1017.3 |
| 20260506084605 | 12 | 216 | 3.2 | 3.2 | 0.00 | 0.00 | 0.00 | 89 | 1017.0 |
| 20260506084101 | 12 | 252 | 3.2 | 3.2 | 0.00 | 0.00 | 0.00 | 89 | 1017.0 |
| 20260506083558 | 12 | 278 | 0.0 | 0.0 | 0.00 | 0.00 | 0.00 | 89 | 1017.0 |
| 20260506083055 | 12 | 247 | 1.6 | 3.2 | 0.00 | 0.00 | 0.00 | 89 | 1017.1 |
| 20260506082552 | 12 | 252 | 1.6 | 3.2 | 0.00 | 0.00 | 0.00 | 88 | 1016.9 |
| 20260506082048 | 12 | 214 | 3.2 | 3.2 | 0.00 | 0.00 | 0.00 | 88 | 1016.9 |
| 20260506081546 | 12 | 253 | 0.0 | 0.0 | 0.00 | 0.00 | 0.00 | 88 | 1016.7 |
| 20260506081043 | 12 | 227 | 3.2 | 4.8 | 0.00 | 0.00 | 0.00 | 88 | 1016.9 |
| 20260506080541 | 12 | 272 | 1.6 | 1.6 | 0.00 | 0.00 | 0.00 | 87 | 1016.7 |
| 20260506073525 | 13 | 196 | 6.4 | 8.0 | 0.00 | 0.00 | 0.00 | 87 | 1016.7 |
| 20260506073021 | 12 | 210 | 4.8 | 4.8 | 0.00 | 0.00 | 0.00 | 88 | 1016.8 |
| 20260506072519 | 12 | 199 | 6.4 | 8.0 | 0.00 | 0.00 | 0.00 | 88 | 1016.6 |
| 20260506072016 | 12 | 202 | 4.8 | 4.8 | 0.00 | 0.00 | 0.00 | 88 | 1016.5 |
| 20260506071514 | 13 | 266 | 3.2 | 4.8 | 0.00 | 0.00 | 0.00 | 87 | 1016.8 |
| 20260506071011 | 13 | 239 | 3.2 | 3.2 | 0.00 | 0.00 | 0.00 | 87 | 1016.5 |
| 20260506070508 | 13 | 235 | 1.6 | 3.2 | 0.00 | 0.00 | 0.00 | 87 | 1016.5 |
| 20260506062445 | 13 | 250 | 1.6 | 1.6 | 0.00 | 0.00 | 0.00 | 85 | 1016.1 |
| 20260506061941 | 13 | 250 | 1.6 | 3.2 | 0.00 | 0.00 | 0.00 | 85 | 1016.2 |
| 20260506061438 | 13 | 246 | 8.0 | 9.7 | 0.00 | 0.00 | 0.00 | 85 | 1016.2 |
| 20260506060936 | 14 | 269 | 4.8 | 4.8 | 0.00 | 0.00 | 0.00 | 85 | 1016.0 |
| 20260506060434 | 14 | 286 | 0.0 | 1.6 | 0.00 | 0.00 | 0.00 | 84 | 1015.9 |
| 20260506051406 | 15 | 207 | 11.3 | 14.5 | 0.00 | 0.00 | 0.00 | 81 | 1015.5 |
| 20260506050903 | 15 | 239 | 1.6 | 1.6 | 0.00 | 0.00 | 0.00 | 81 | 1015.5 |
| 20260506050401 | 15 | 191 | 6.4 | 8.0 | 0.00 | 0.00 | 0.00 | 81 | 1015.5 |
| 20260506044851 | 16 | 150 | 6.4 | 8.0 | 0.00 | 0.00 | 0.00 | 80 | 1015.3 |
| 20260506044349 | 16 | 210 | 6.4 | 9.7 | 0.00 | 0.00 | 0.00 | 80 | 1015.2 |
| 20260506043846 | 16 | 189 | 4.8 | 4.8 | 0.00 | 0.00 | 0.00 | 80 | 1015.4 |
| 20260506043343 | 16 | 196 | 8.0 | 9.7 | 0.00 | 0.00 | 0.00 | 80 | 1015.3 |
| 20260506042841 | 16 | 209 | 4.8 | 8.0 | 0.00 | 0.00 | 0.00 | 80 | 1015.4 |
| 20260506042340 | 16 | 197 | 9.7 | 12.9 | 0.00 | 0.00 | 0.00 | 80 | 1015.1 |
| 20260506041838 | 16 | 202 | 8.0 | 11.3 | 0.00 | 0.00 | 0.00 | 80 | 1015.3 |
| 20260506041335 | 16 | 197 | 8.0 | 9.7 | 0.00 | 0.00 | 0.00 | 80 | 1015.1 |
| 20260506040832 | 16 | 209 | 4.8 | 4.8 | 0.00 | 0.00 | 0.00 | 80 | 1015.2 |
| 20260506040329 | 16 | 209 | 4.8 | 8.0 | 0.00 | 0.00 | 0.00 | 80 | 1015.1 |
| 20260506035825 | 16 | 208 | 3.2 | 3.2 | 0.00 | 0.00 | 0.00 | 79 | 1015.3 |
| 20260506035323 | 16 | 255 | 4.8 | 8.0 | 0.00 | 0.00 | 0.00 | 79 | 1015.1 |
| 20260506034820 | 16 | 271 | 0.0 | 1.6 | 0.00 | 0.00 | 0.00 | 78 | 1015.0 |
| 20260506034317 | 16 | 245 | 3.2 | 4.8 | 0.00 | 0.00 | 0.00 | 78 | 1015.2 |
| 20260506033814 | 16 | 254 | 0.0 | 3.2 | 0.00 | 0.00 | 0.00 | 78 | 1015.0 |
| 20260506033311 | 16 | 218 | 1.6 | 3.2 | 0.00 | 0.00 | 0.00 | 77 | 1014.9 |
| 20260506032808 | 16 | 223 | 1.6 | 3.2 | 0.00 | 0.00 | 0.00 | 77 | 1014.9 |
| 20260506032306 | 16 | 237 | 3.2 | 4.8 | 0.00 | 0.00 | 0.00 | 76 | 1014.8 |
| 20260506031801 | 17 | 191 | 8.0 | 9.7 | 0.00 | 0.00 | 0.00 | 76 | 1015.0 |
| 20260506031259 | 17 | 196 | 4.8 | 4.8 | 0.00 | 0.00 | 0.00 | 75 | 1014.8 |
| 20260506030757 | 17 | 177 | 6.4 | 8.0 | 0.00 | 0.00 | 0.00 | 75 | 1014.6 |
| 20260506030254 | 17 | 182 | 9.7 | 11.3 | 0.00 | 0.00 | 0.00 | 75 | 1014.8 |
| 20260506025751 | 17 | 195 | 8.0 | 11.3 | 0.00 | 0.00 | 0.00 | 75 | 1014.7 |
| 20260506025247 | 17 | 201 | 3.2 | 3.2 | 0.00 | 0.00 | 0.00 | 74 | 1014.8 |
| 20260506024744 | 17 | 186 | 4.8 | 4.8 | 0.00 | 0.00 | 0.00 | 74 | 1014.8 |
| 20260506024241 | 17 | 232 | 6.4 | 9.7 | 0.00 | 0.00 | 0.00 | 74 | 1014.8 |
| 20260506023737 | 17 | 195 | 9.7 | 11.3 | 0.00 | 0.00 | 0.00 | 74 | 1014.7 |
| 20260506023234 | 17 | 202 | 9.7 | 11.3 | 0.00 | 0.00 | 0.00 | 73 | 1014.6 |
| 20260506022731 | 17 | 247 | 6.4 | 8.0 | 0.00 | 0.00 | 0.00 | 73 | 1014.6 |
| 20260506022229 | 17 | 232 | 3.2 | 3.2 | 0.00 | 0.00 | 0.00 | 73 | 1014.8 |
| 20260506021727 | 17 | 180 | 11.3 | 14.5 | 0.00 | 0.00 | 0.00 | 73 | 1014.6 |
| 20260506021224 | 17 | 184 | 11.3 | 14.5 | 0.00 | 0.00 | 0.00 | 73 | 1014.6 |
| 20260506020720 | 17 | 191 | 16.1 | 16.1 | 0.00 | 0.00 | 0.00 | 72 | 1014.5 |
| 20260506020218 | 17 | 194 | 8.0 | 9.7 | 0.00 | 0.00 | 0.00 | 72 | 1014.7 |
| 20260506015710 | 17 | 175 | 8.0 | 9.7 | 0.00 | 0.00 | 0.00 | 73 | 1015.1 |
| 20260506015207 | 17 | 174 | 8.0 | 9.7 | 0.00 | 0.00 | 0.00 | 72 | 1014.8 |
| 20260506014704 | 18 | 205 | 6.4 | 11.3 | 0.00 | 0.00 | 0.00 | 71 | 1014.7 |
| 20260506014200 | 18 | 198 | 3.2 | 3.2 | 0.00 | 0.00 | 0.00 | 70 | 1014.9 |
| 20260506013658 | 18 | 245 | 4.8 | 8.0 | 0.00 | 0.00 | 0.00 | 70 | 1014.8 |
| 20260506013155 | 17 | 183 | 4.8 | 4.8 | 0.00 | 0.00 | 0.00 | 72 | 1014.8 |
| 20260506012651 | 18 | 187 | 8.0 | 12.9 | 0.00 | 0.00 | 0.00 | 70 | 1014.8 |
| 20260506012148 | 18 | 274 | 1.6 | 3.2 | 0.00 | 0.00 | 0.00 | 70 | 1014.7 |
| 20260506011645 | 17 | 190 | 9.7 | 11.3 | 0.00 | 0.00 | 0.00 | 71 | 1014.8 |
| 20260506011141 | 17 | 240 | 1.6 | 1.6 | 0.00 | 0.00 | 0.00 | 72 | 1014.8 |
| 20260506010640 | 18 | 191 | 8.0 | 11.3 | 0.00 | 0.00 | 0.00 | 71 | 1014.8 |
| 20260506010137 | 17 | 214 | 8.0 | 11.3 | 0.00 | 0.00 | 0.00 | 72 | 1014.8 |
| 20260506005634 | 17 | 231 | 6.4 | 8.0 | 0.00 | 0.00 | 0.00 | 72 | 1014.7 |
| 20260506005131 | 17 | 210 | 6.4 | 9.7 | 0.00 | 0.00 | 0.00 | 73 | 1015.0 |
| 20260506004627 | 17 | 195 | 8.0 | 9.7 | 0.00 | 0.00 | 0.00 | 73 | 1014.8 |
| 20260506004124 | 18 | 210 | 3.2 | 4.8 | 0.00 | 0.00 | 0.00 | 72 | 1014.9 |
| 20260506003620 | 17 | 263 | 3.2 | 3.2 | 0.00 | 0.00 | 0.00 | 74 | 1014.9 |
| 20260506003116 | 17 | 196 | 8.0 | 9.7 | 0.00 | 0.00 | 0.00 | 74 | 1014.8 |
| 20260506002613 | 17 | 255 | 8.0 | 9.7 | 0.00 | 0.00 | 0.00 | 74 | 1015.1 |
| 20260506002109 | 17 | 207 | 4.8 | 4.8 | 0.00 | 0.00 | 0.00 | 74 | 1014.9 |
| 20260506001605 | 17 | 204 | 9.7 | 11.3 | 0.00 | 0.00 | 0.00 | 74 | 1015.1 |
| 20260506001102 | 17 | 182 | 9.7 | 12.9 | 0.00 | 0.00 | 0.00 | 73 | 1014.9 |
| 20260506000600 | 17 | 192 | 6.4 | 8.0 | 0.00 | 0.00 | 0.00 | 72 | 1015.0 |
| 20260506000057 | 17 | 200 | 17.7 | 20.9 | 0.00 | 0.00 | 0.00 | 74 | 1015.2 |
| 20260505235555 | 17 | 142 | 9.7 | 11.3 | 0.00 | 0.00 | 0.00 | 74 | 1015.2 |
| 20260505235052 | 17 | 181 | 9.7 | 11.3 | 0.00 | 0.00 | 0.00 | 73 | 1015.5 |
| 20260505234549 | 17 | 210 | 4.8 | 8.0 | 0.00 | 0.00 | 0.00 | 73 | 1015.3 |
| 20260505234045 | 17 | 182 | 8.0 | 11.3 | 0.00 | 0.00 | 0.00 | 74 | 1015.4 |
| 20260505233543 | 17 | 223 | 8.0 | 9.7 | 0.00 | 0.00 | 0.00 | 74 | 1015.4 |
| 20260505233040 | 17 | 215 | 9.7 | 12.9 | 0.00 | 0.00 | 0.00 | 74 | 1015.5 |
| 20260505232538 | 17 | 182 | 6.4 | 11.3 | 0.00 | 0.00 | 0.00 | 74 | 1015.5 |
| 20260505232035 | 17 | 260 | 3.2 | 3.2 | 0.00 | 0.00 | 0.00 | 73 | 1015.8 |
| 20260505231532 | 16 | 194 | 12.9 | 14.5 | 0.00 | 0.00 | 0.00 | 74 | 1015.6 |
| 20260505231031 | 16 | 196 | 9.7 | 14.5 | 0.00 | 0.00 | 0.00 | 76 | 1015.6 |
| 20260505230528 | 16 | 138 | 6.4 | 8.0 | 0.00 | 0.00 | 0.00 | 77 | 1015.5 |
| 20260505230024 | 17 | 156 | 11.3 | 14.5 | 0.00 | 0.00 | 0.00 | 74 | 1015.6 |
| 20260505225521 | 17 | 210 | 6.4 | 12.9 | 0.00 | 0.00 | 0.00 | 74 | 1015.9 |
| 20260505225017 | 16 | 219 | 1.6 | 3.2 | 0.00 | 0.00 | 0.00 | 76 | 1015.7 |
| 20260505224514 | 17 | 198 | 12.9 | 20.9 | 0.00 | 0.00 | 0.00 | 75 | 1015.9 |
| 20260505224011 | 16 | 210 | 3.2 | 3.2 | 0.00 | 0.00 | 0.00 | 76 | 1015.7 |
| 20260505223508 | 16 | 191 | 14.5 | 16.1 | 0.00 | 0.00 | 0.00 | 76 | 1015.6 |
| 20260505223004 | 16 | 184 | 4.8 | 11.3 | 0.00 | 0.00 | 0.00 | 76 | 1015.9 |
| 20260505222501 | 16 | 193 | 17.7 | 20.9 | 0.00 | 0.00 | 0.00 | 76 | 1015.9 |
| 20260505221956 | 16 | 226 | 11.3 | 14.5 | 0.00 | 0.00 | 0.00 | 78 | 1016.1 |
| 20260505221454 | 16 | 221 | 11.3 | 14.5 | 0.00 | 0.00 | 0.00 | 77 | 1016.1 |
| 20260505220951 | 15 | 200 | 4.8 | 8.0 | 0.00 | 0.00 | 0.00 | 79 | 1016.1 |
| 20260505220448 | 15 | 147 | 3.2 | 3.2 | 0.00 | 0.00 | 0.00 | 78 | 1016.2 |
| 20260505215945 | 15 | 241 | 3.2 | 3.2 | 0.00 | 0.00 | 0.00 | 78 | 1016.3 |
| 20260505215444 | 15 | 178 | 8.0 | 11.3 | 0.00 | 0.00 | 0.00 | 78 | 1016.2 |
| 20260505214941 | 15 | 225 | 4.8 | 8.0 | 0.00 | 0.00 | 0.00 | 78 | 1016.5 |
| 20260505214439 | 15 | 219 | 9.7 | 11.3 | 0.00 | 0.00 | 0.00 | 79 | 1016.2 |
| 20260505213936 | 15 | 245 | 6.4 | 8.0 | 0.00 | 0.00 | 0.00 | 79 | 1016.3 |
| 20260505213433 | 15 | 180 | 8.0 | 9.7 | 0.00 | 0.00 | 0.00 | 80 | 1016.3 |
| 20260505212929 | 15 | 161 | 4.8 | 4.8 | 0.00 | 0.00 | 0.00 | 79 | 1016.2 |
| 20260505212426 | 15 | 209 | 4.8 | 4.8 | 0.00 | 0.00 | 0.00 | 79 | 1016.5 |
| 20260505211923 | 15 | 165 | 4.8 | 4.8 | 0.00 | 0.00 | 0.00 | 80 | 1016.5 |
| 20260505211420 | 15 | 176 | 11.3 | 12.9 | 0.00 | 0.00 | 0.00 | 78 | 1016.2 |
| 20260505210917 | 15 | 193 | 8.0 | 9.7 | 0.00 | 0.00 | 0.00 | 78 | 1016.3 |
| 20260505210414 | 15 | 186 | 3.2 | 3.2 | 0.00 | 0.00 | 0.00 | 80 | 1016.3 |
| 20260505205911 | 15 | 212 | 4.8 | 4.8 | 0.00 | 0.00 | 0.00 | 79 | 1016.3 |
| 20260505205409 | 15 | 216 | 6.4 | 8.0 | 0.00 | 0.00 | 0.00 | 79 | 1016.4 |
| 20260505204906 | 15 | 173 | 8.0 | 9.7 | 0.00 | 0.00 | 0.00 | 80 | 1016.2 |
| 20260505204403 | 15 | 174 | 1.6 | 3.2 | 0.00 | 0.00 | 0.00 | 80 | 1016.3 |
| 20260505203900 | 15 | 186 | 14.5 | 17.7 | 0.00 | 0.00 | 0.00 | 79 | 1016.6 |
| 20260505203357 | 15 | 222 | 1.6 | 3.2 | 0.00 | 0.00 | 0.00 | 80 | 1016.6 |
| 20260505202853 | 14 | 201 | 12.9 | 16.1 | 0.00 | 0.00 | 0.00 | 81 | 1016.6 |
| 20260505202349 | 14 | 201 | 11.3 | 12.9 | 0.00 | 0.00 | 0.00 | 81 | 1016.5 |
| 20260505201846 | 14 | 186 | 11.3 | 12.9 | 0.00 | 0.00 | 0.00 | 81 | 1016.6 |
| 20260505201343 | 14 | 198 | 9.7 | 11.3 | 0.00 | 0.00 | 0.00 | 82 | 1016.4 |
| 20260505200842 | 14 | 264 | 1.6 | 3.2 | 0.00 | 0.00 | 0.00 | 82 | 1016.5 |
| 20260505200338 | 15 | 273 | 1.6 | 1.6 | 0.00 | 0.00 | 0.00 | 82 | 1016.5 |
| 20260505195834 | 14 | 222 | 4.8 | 4.8 | 0.00 | 0.00 | 0.00 | 82 | 1016.4 |
| 20260505195331 | 14 | 269 | 4.8 | 8.0 | 0.00 | 0.00 | 0.00 | 82 | 1016.5 |
| 20260505194828 | 15 | 216 | 4.8 | 8.0 | 0.00 | 0.00 | 0.00 | 82 | 1016.4 |
| 20260505194325 | 14 | 207 | 4.8 | 4.8 | 0.00 | 0.00 | 0.00 | 82 | 1016.4 |
| 20260505193820 | 14 | 160 | 8.0 | 11.3 | 0.00 | 0.00 | 0.00 | 83 | 1016.7 |
| 20260505193319 | 14 | 243 | 9.7 | 11.3 | 0.00 | 0.00 | 0.00 | 82 | 1016.5 |
| 20260505192816 | 14 | 229 | 9.7 | 11.3 | 0.00 | 0.00 | 0.00 | 82 | 1016.5 |
| 20260505192315 | 14 | 207 | 6.4 | 8.0 | 0.00 | 0.00 | 0.00 | 83 | 1016.4 |
| 20260505191812 | 14 | 217 | 4.8 | 8.0 | 0.00 | 0.00 | 0.00 | 83 | 1016.5 |
| 20260505191310 | 14 | 188 | 6.4 | 8.0 | 0.00 | 0.00 | 0.00 | 83 | 1016.5 |
| 20260505190807 | 13 | 251 | 6.4 | 8.0 | 0.00 | 0.00 | 0.00 | 83 | 1016.4 |
| 20260505190302 | 14 | 264 | 8.0 | 9.7 | 0.00 | 0.00 | 0.00 | 83 | 1016.4 |
| 20260505185758 | 14 | 184 | 8.0 | 11.3 | 0.00 | 0.00 | 0.00 | 83 | 1016.2 |
| 20260505185254 | 13 | 185 | 8.0 | 9.7 | 0.00 | 0.00 | 0.00 | 84 | 1016.3 |
| 20260505184750 | 14 | 192 | 4.8 | 8.0 | 0.00 | 0.00 | 0.00 | 83 | 1016.3 |
| 20260505184248 | 13 | 219 | 3.2 | 4.8 | 0.00 | 0.00 | 0.00 | 83 | 1016.4 |
| 20260505183745 | 13 | 238 | 1.6 | 3.2 | 0.00 | 0.00 | 0.00 | 84 | 1016.4 |
| 20260505183242 | 13 | 186 | 8.0 | 11.3 | 0.00 | 0.00 | 0.00 | 84 | 1016.3 |
| 20260505182738 | 13 | 197 | 8.0 | 9.7 | 0.00 | 0.00 | 0.00 | 84 | 1016.3 |
| 20260505182235 | 13 | 210 | 4.8 | 8.0 | 0.00 | 0.00 | 0.00 | 84 | 1016.3 |
| 20260505181732 | 13 | 179 | 9.7 | 11.3 | 0.00 | 0.00 | 0.00 | 84 | 1016.6 |
| 20260505181229 | 13 | 264 | 3.2 | 3.2 | 0.00 | 0.00 | 0.00 | 84 | 1016.4 |
| 20260505180726 | 13 | 186 | 8.0 | 9.7 | 0.00 | 0.00 | 0.00 | 84 | 1016.4 |
| 20260505180222 | 13 | 209 | 3.2 | 3.2 | 0.00 | 0.00 | 0.00 | 84 | 1016.4 |
| 20260505175719 | 13 | 198 | 3.2 | 3.2 | 0.00 | 0.00 | 0.00 | 85 | 1016.2 |
| 20260505175215 | 13 | 190 | 4.8 | 4.8 | 0.00 | 0.00 | 0.00 | 85 | 1016.1 |
| 20260505174712 | 13 | 201 | 14.5 | 17.7 | 0.00 | 0.00 | 0.00 | 85 | 1016.3 |
| 20260505174209 | 13 | 185 | 8.0 | 8.0 | 0.00 | 0.00 | 0.00 | 86 | 1016.3 |
| 20260505173705 | 13 | 201 | 14.5 | 16.1 | 0.00 | 0.00 | 0.00 | 85 | 1016.4 |
| 20260505173202 | 13 | 208 | 4.8 | 9.7 | 0.00 | 0.00 | 0.00 | 85 | 1016.5 |
| 20260505172659 | 13 | 199 | 3.2 | 3.2 | 0.00 | 0.00 | 0.00 | 86 | 1016.3 |
| 20260505172156 | 13 | 256 | 8.0 | 11.3 | 0.00 | 0.00 | 0.00 | 85 | 1016.4 |
| 20260505171655 | 13 | 176 | 4.8 | 4.8 | 0.00 | 0.00 | 0.00 | 86 | 1016.1 |
| 20260505171152 | 13 | 186 | 11.3 | 14.5 | 0.00 | 0.00 | 0.00 | 85 | 1016.2 |
| 20260505170649 | 13 | 257 | 1.6 | 3.2 | 0.00 | 0.00 | 0.00 | 86 | 1016.2 |
| 20260505170146 | 13 | 198 | 8.0 | 9.7 | 0.00 | 0.00 | 0.00 | 86 | 1016.2 |
| 20260505165646 | 13 | 248 | 1.6 | 3.2 | 0.00 | 0.00 | 0.00 | 86 | 1016.1 |
| 20260505165143 | 13 | 217 | 8.0 | 9.7 | 0.00 | 0.00 | 0.00 | 86 | 1016.2 |
| 20260505164638 | 13 | 204 | 3.2 | 3.2 | 0.00 | 0.00 | 0.00 | 85 | 1015.9 |
| 20260505164136 | 13 | 215 | 8.0 | 11.3 | 0.00 | 0.00 | 0.00 | 85 | 1015.9 |
| 20260505163634 | 13 | 221 | 6.4 | 9.7 | 0.00 | 0.00 | 0.00 | 86 | 1016.0 |
| 20260505163132 | 13 | 206 | 8.0 | 11.3 | 0.00 | 0.00 | 0.00 | 86 | 1016.1 |
| 20260505162629 | 13 | 185 | 9.7 | 12.9 | 0.00 | 0.00 | 0.00 | 85 | 1015.9 |
| 20260505162126 | 13 | 276 | 8.0 | 9.7 | 0.00 | 0.00 | 0.00 | 85 | 1015.9 |
| 20260505161623 | 13 | 269 | 4.8 | 8.0 | 0.00 | 0.00 | 0.00 | 85 | 1015.9 |
| 20260505161120 | 13 | 216 | 8.0 | 9.7 | 0.00 | 0.00 | 0.00 | 86 | 1015.9 |
| 20260505160618 | 13 | 199 | 9.7 | 12.9 | 0.00 | 0.00 | 0.00 | 86 | 1015.9 |
| 20260505160115 | 13 | 178 | 3.2 | 4.8 | 0.00 | 0.00 | 0.00 | 86 | 1015.8 |